Location: Bruderhein
(53.8035°N, 112.9265°W)
Time: 21:42:20
(UTC+00:00)

Gurwin Techsat 1B - Pass Details

Date: 17 April 2024
Orbit: 811 x 812 km, 98.9° (Epoch: 26 May)

Event Time Altitude Azimuth Distance (km) Brightness Sun altitude
Rises 09:51:02 0° 25° (NNE) 3,350 13.4 -19.0°
Reaches altitude 10° 09:54:06 10° 43° (NE) 2,413 12.3 -18.7°
Maximum altitude 09:57:50 19° 88° (E) 1,854 10.9 -18.4°
Drops below altitude 10° 10:01:33 10° 133° (SE) 2,400 11.0 -18.0°
Sets 10:04:34 0° 151° (SSE) 3,326 11.6 -17.8°
